Find Starlink 30978

NORAD ID: 58490 Int'l Des: 2023-186 Owner: SPXS Country: US Constellation: starlink operational
LEOCIRCULAR

Current View

Loading 3D Globe...

About Starlink 30978

Starlink 30978 (NORAD 58490) is a starlink constellation satellite (v2 mini) launched Dec 3, 2023 by SPXS of US. It operates in LEO, CIRCULAR orbit with a mass of 730.00 kg.

About Starlink 30978

Description loading...

Upcoming Passes

Passes for default location (London). Set your location on the main map for personalized predictions.

Altitude History

Loading altitude history...

Two-Line Element Set

1 58490U 23186T 26176.29317040 .00000522 00000-0 28508-4 0 9990
2 58490 42.9995 175.8832 0001126 264.6974 95.3750 15.27576866142344
Epoch: Jun 25, 2026 • Age: 13 hours

Current Status

Altitude 487.0 km
Velocity 7.62 km/s
Sub-Earth Point -19.80°S, 153.75°E
Launch Date Dec 3, 2023
Age 2.5 years
Type internet

Technical Details

Classification Payload
Mass 730.00 kg
Dry Mass 700.00 kg
Total Mass 730.00 kg
Length 0.30 m
Diameter 4.10 m
Span 29.00 m
Shape Box + pan
Manufacturer SPXS
Bus Type Starlink V2M
Phase Status In Orbit
Owner/State SPXS/US

Most Searched